Change the Weather History Date:

Saturday, December 1, 2012

  Actual Average Record
Temperature  
Mean Temperature 55 °F -  
Max Temperature 69 °F 49 °F 69 °F (2012)
Min Temperature 41 °F 30 °F 0 °F (2006)
Degree Days  
Heating Degree Days 10    
Growing Degree Days 5 (Base 50)    
Moisture  
Dew Point 50 °F    
Average Humidity 80    
Maximum Humidity 97    
Minimum Humidity 40    
Precipitation  
Precipitation 0.00 in - - ()
Sea Level Pressure  
Sea Level Pressure 29.86 in    
Wind  
Wind Speed 13 mph (South)    
Max Wind Speed 23 mph    
Max Gust Speed 34 mph    
Visibility 9 miles    
Events      
Averages and records for this station are not official NWS values.
T = Trace of Precipitation, MM = Missing Value Source: NWS Daily Summary

Daily Weather History Graph

Daily Weather History Graph

Search for Another Location

Airport or City:

Trip Planner

Search our weather history database for the weather conditions in past years. The results will help you decide how hot, cold, wet, or windy it might be!

Date:

Astronomy

Dec. 01, 2012 Rise Set
Actual Time 7:23 AM CST 5:11 PM CST
Civil Twilight 6:55 AM CST 5:39 PM CST
Nautical Twilight 6:22 AM CST 6:11 PM CST
Astronomical Twilight 5:51 AM CST 6:43 PM CST
Moon 8:01 PM CST (12/1) 9:38 AM CST (12/1)
Length of Visible Light 10h 44m
Length of Day
9h 47m
Waning Gibbous, 91% of the Moon is Illuminated
Dec 1
Waning Gibbous
Dec 6
Last Quarter
Dec 13
New
Dec 19
First Quarter
Dec 28
Full

Hourly Weather History & Observations

Time (CST) Temp. Dew Point Humidity Pressure Visibility Wind Dir Wind Speed Gust Speed Precip Events Conditions
12:54 AM 57.9 °F 55.9 °F 93% 29.92 in 6.0 mi SSE 10.4 mph - N/A   Overcast
1:54 AM 59.0 °F 57.0 °F 93% 29.90 in 7.0 mi SSE 17.3 mph - N/A   Mostly Cloudy
2:16 AM 59.0 °F 57.2 °F 94% 29.91 in 7.0 mi SSE 15.0 mph - N/A   Scattered Clouds
4:54 AM 57.9 °F 57.0 °F 97% 29.85 in 7.0 mi SSE 8.1 mph - N/A   Partly Cloudy
5:23 AM 59.0 °F 57.2 °F 94% 29.85 in 8.0 mi SSE 10.4 mph - N/A   Mostly Cloudy
5:54 AM 60.1 °F 57.0 °F 90% 29.83 in 9.0 mi SSE 17.3 mph 23.0 mph N/A   Mostly Cloudy
6:04 AM 60.8 °F 57.2 °F 88% 29.84 in 9.0 mi SSE 17.3 mph 25.3 mph N/A   Mostly Cloudy
6:41 AM 59.0 °F 57.2 °F 94% 29.83 in 9.0 mi South 18.4 mph 25.3 mph N/A   Scattered Clouds
6:54 AM 59.0 °F 57.0 °F 93% 29.83 in 9.0 mi South 17.3 mph - N/A   Partly Cloudy
7:54 AM 59.0 °F 57.0 °F 93% 29.81 in 7.0 mi SSE 19.6 mph 27.6 mph N/A   Clear
8:54 AM 61.0 °F 57.0 °F 87% 29.81 in 9.0 mi South 17.3 mph 28.8 mph N/A   Scattered Clouds
9:10 AM 60.8 °F 57.2 °F 88% 29.82 in 9.0 mi South 19.6 mph 28.8 mph N/A   Mostly Cloudy
9:50 AM 62.6 °F 57.2 °F 82% 29.82 in 10.0 mi South 20.7 mph 29.9 mph N/A   Mostly Cloudy
10:31 AM 64.4 °F 57.2 °F 77% 29.83 in 10.0 mi South 20.7 mph 29.9 mph N/A   Scattered Clouds
11:54 AM 68.0 °F 54.0 °F 61% 29.79 in 10.0 mi SSW 23.0 mph 34.5 mph N/A   Clear
12:54 PM 69.1 °F 51.1 °F 53% 29.78 in 10.0 mi SSW 23.0 mph - N/A   Clear
3:54 PM 66.0 °F 41.0 °F 40% 29.81 in 10.0 mi West 9.2 mph - N/A   Clear
5:54 PM 57.0 °F 39.0 °F 51% 29.86 in 10.0 mi Calm Calm - N/A   Clear
6:54 PM 50.0 °F 39.0 °F 66% 29.89 in 10.0 mi NW 4.6 mph - N/A   Clear
7:54 PM 51.1 °F 39.0 °F 63% 29.91 in 10.0 mi Calm Calm - N/A   Clear
8:54 PM 46.9 °F 37.9 °F 71% 29.91 in 10.0 mi Calm Calm - N/A   Clear
9:54 PM 45.0 °F 37.9 °F 76% 29.93 in 10.0 mi Calm Calm - N/A   Clear
10:54 PM 41.0 °F 37.0 °F 86% 29.93 in 10.0 mi Calm Calm - N/A   Clear
11:54 PM 41.0 °F 37.0 °F 86% 29.94 in 10.0 mi Calm Calm - N/A   Clear